Powrót do katalogu

HULIANWANG DIGUI-130

AktywnyŁącznośćLEO
NORAD 67238·PAYLOAD·🇨🇳 China

Wystrzelony Dec 25, 2025 z Wenchang Space Launch Site

Loading…

Następne Przeloty (najbliższe 24 godziny)

TLE

ŚwieżeSource: Space-Track

Epoka: Sep 14, 2026, 02:34 UTC

1 67238U 25311C   26257.10752810 -.00000075  00000-0  10491-3 0  9995
2 67238  50.0048 157.1068 0000291 300.2503  59.8340 13.29326882 35166

Śledź HULIANWANG DIGUI-130 w czasie rzeczywistym z AllMySat

Download on the App Store